Regional Weather Roundup
Issued by NWS

Home | Current Version | Previous Version | Text Only | Print | Product List | Glossary On
Versions: 1 2 3 4 5 6 7 8 9 10 11 12 13 14 15 16 17 18 19 20 21 22 23 24 25 26 27 28 29 30 31 32 33 34 35 36 37 38 39 40 41 42 43 44 45 46 47 48 49 50
000
ASUS43 KMKX 240921
RWRWI

WISCONSIN REGIONAL WEATHER ROUNDUP
NATIONAL WEATHER SERVICE MILWAUKEE/SULLIVAN WI
400 AM CDT WED MAY 24 2017

NOTE: "FAIR" INDICATES FEW OR NO CLOUDS BELOW 12,000 FEET WITH NO
SIGNIFICANT WEATHER AND/OR OBSTRUCTIONS TO VISIBILITY.

WIZ001-002-006>008-014>016-023>028-241000-
NORTHWEST WISCONSIN

CITY           SKY/WX    TMP DP  RH WIND       PRES   REMARKS
SUPERIOR ARPT  NOT AVBL
ASHLAND        CLOUDY    46  44  93 NE5       29.82F
HAYWARD        CLOUDY    46  42  86 NE9       29.81S
SIREN          CLOUDY    45  43  91 NE6       29.82F
CUMBERLAND     CLOUDY    43  41  93 N12       29.79F
RICE LAKE      CLOUDY    46  43  87 N9        29.79F
CHETEK         CLOUDY    46  44  91 N6        29.78F
LADYSMITH      CLOUDY    45  43  93 N9        29.79S
EAU CLAIRE     CLOUDY    48  44  86 N8        29.75S
MENOMONIE      RAIN      48  45  88 N6        29.77F
NEW RICHMOND   CLOUDY    45  43  92 NE8       29.79F
OSCEOLA        CLEAR     45  45 100 N5        29.83S
$$

WIZ003>005-009-010-017-018-241000-
NORTH CENTRAL WISCONSIN

CITY           SKY/WX    TMP DP  RH WIND       PRES   REMARKS
MANITOWISH WTR CLOUDY    45  45 100 N5        29.78F
ARBOR VITAE    CLOUDY    46  43  90 N7        29.77S
WOODRUFF       CLOUDY    46  43  90 N7        29.77S
RHINELANDER    CLOUDY    47  44  90 NE3       29.76F
EAGLE RIVER    CLOUDY    45  44  94 NE8       29.76S
LAND O LAKES   CLOUDY    45  43  93 NE6       29.79F
PHILLIPS       CLOUDY    46  44  93 N10       29.77S
TOMAHAWK       CLOUDY    46  42  87 N5        29.76S
MEDFORD        CLOUDY    46  43  88 NE9       29.74S
MERRILL        LGT RAIN  47  46  99 NE6       29.74S
$$

WIZ029-030-035-036-043>047-241000-
CENTRAL WISCONSIN

CITY           SKY/WX    TMP DP  RH WIND       PRES   REMARKS
WAUSAU         LGT RAIN  48  46  93 N3        29.71F
MOSINEE        LGT RAIN  46  46 100 N7        29.73F
MARSHFIELD     LGT RAIN  49  45  86 NE8       29.71F
STEVENS POINT  DRIZZLE   46  46 100 NE7       29.72S
WAUPACA        CLOUDY    50  49  94 NE6       29.71S FOG
WAUTOMA        LGT RAIN  49  48  97 N9        29.70S FOG
WISC RAPIDS    LGT RAIN  49  47  93 NE9       29.72F FOG
CAMP DOUGLAS   CLOUDY    50  50 100 N5        29.70S
$$

WIZ011>013-019>022-031-037>040-048>050-241000-
NORTHEAST WISCONSIN

CITY           SKY/WX    TMP DP  RH WIND       PRES   REMARKS
ANTIGO         CLOUDY    46  45  97 NE9       29.73S
SHAWANO        DRIZZLE   50  47  92 NE10      29.72S
OCONTO         CLOUDY    47  46  97 N5        29.71S
STURGEON BAY   LGT RAIN  48  46  93 NE10      29.70F
GREEN BAY      CLOUDY    49  49 100 NE14      29.69F
MANITOWOC      CLOUDY    47  45  93 VRB3      29.69F
APPLETON       LGT RAIN  46  46 100 NE14      29.67F
CLINTONVILLE   DRIZZLE   46  46 100 NE7       29.71S
OSHKOSH        CLOUDY    50  48  93 NE12      29.67S FOG
$$

WIZ032>034-041-042-053>061-241000-
SOUTHWEST WISCONSIN

CITY           SKY/WX    TMP DP  RH WIND       PRES   REMARKS
LA CROSSE      CLOUDY    53  48  83 VRB3      29.72S
SPARTA         CLOUDY    48  48 100 CALM      29.72S
VIROQUA        CLOUDY    48  47  96 MISG      29.70S
BOSCOBEL       CLOUDY    52  49  89 NE6       29.68S
PRAIRIE DU CHI CLOUDY    51  49  91 N5        29.68S
PLATTEVILLE    CLOUDY    52  52 100 NE9       29.66S
$$

WIZ056-057-062-063-064-067-068-241000-
SOUTH CENTRAL WISCONSIN

CITY           SKY/WX    TMP DP  RH WIND       PRES   REMARKS
REEDSBURG      CLOUDY    49  49 100 NE6       29.68F
BARABOO/DELLS  CLOUDY    48  47  95 NE7       29.68S FOG
LONE ROCK      CLOUDY    51  47  86 NE7       29.67F
MINERAL POINT  CLOUDY    52  52 100 NE9       29.66S
MADISON        CLOUDY    50  48  93 NE8       29.66F
MIDDLETON      CLOUDY    51  51 100 NE8       29.67S
WATERTOWN      CLOUDY    48  48 100 NE5       29.65F FOG
MONROE         CLOUDY    50  50 100 N8        29.64S
JANESVILLE     CLOUDY    52  52 100 NE6       29.63F FOG
$$

WIZ051-052-058>065-066-070>072-241000-
SOUTHEAST WISCONSIN

CITY           SKY/WX    TMP DP  RH WIND       PRES   REMARKS
MILWAUKEE      CLOUDY    48  48 100 NE5       29.65F
WAUKESHA       LGT RAIN  45  45 100 N5        29.66F
MILWAUKEE/TIMM DRIZZLE   46  45  93 N5        29.66F
RACINE         LGT RAIN  47  46  97 N7        29.67R FOG
KENOSHA        LGT RAIN  49  48  97 N6        29.65R
FOND DU LAC    CLOUDY    51  48  89 NE5       29.67F FOG
SHEBOYGAN      CLOUDY    48  48 100 NE8       29.67S FOG
WEST BEND      LGT RAIN  46  46 100 N3        29.66F
JUNEAU         FOG       48  48  98 N5        29.67S VSB 1/2
$$

LSZ147-162-241000-
LAKE SUPERIOR

STATION/POSITION TIME  TEMP    WIND        PRES    WAVE
                       AIR SEA DIR/SP/G            HT/PER
                 (UTC) (F)     (DEG/KT/KT) (MB)    (FT/S)
W MID LAKE BUOY  0850   40 37   20/ 10/ 12 1010.8F   1
DEVILS ISLAND    0900   44      30/ 14/ 15 1010.6F
SAXON HARBOR     0830   43      CALM  /  2 1009.8F
$$

LMZ867-665-643>646-241000-
LAKE MICHIGAN

STATION/POSITION TIME  TEMP    WIND        PRES    WAVE
                       AIR SEA DIR/SP/G            HT/PER
                 (UTC) (F)     (DEG/KT/KT) (MB)    (FT/S)
CHAMBERS ISLAND  0840   47      10/ 10/ 12 1006.1S
N MID LAKE BUOY  0850   42 39   40/ 10/ 12 1007.0F   1/ 3
NORTHPORT PIER   0840   46      10/  9/ 11 1006.4F
KEWAUNEE LAKESHO 0854   47      20/ 11/ 16 1005.1F
SHEBOYGAN LAKESH 0900   45      10/ 12/ 13 1005.0F
PORT WASHINGTON  0830   47      50/  3/  4 1005.8F
ATWATER BUOY     0809   45      10/  8/ 12 1004.6F
MILWAUKEE LAKESH 0900   47      20/  7/  8   N/A
S MID LAKE BUOY  0850   47 45  360/ 10/ 12 1003.6F   0
KENOSHA   LAKESH 0900   47      10/ 10/ 12 1004.1
$$

TC  - TEMPERATURE IN CELSIUS
VSB - VISIBILITY IN STATUTE MILES
WCI - WIND CHILL INDEX
HX  - HEAT INDEX





USA.gov is the U.S. government's official web portal to all federal, state and local government web resources and services.